EW3263 Weather Reports


Display with metric or nautical units.
time (UTC)temp
F
wind
direction
speed
MPH
gust
MPH
rain 1hr
in
rain 24hr
in
rain mn
in
humidity
%
barometer
mb
20260504010059 62 0.0 0.0 0.00 0.00 0.00 62 1019.3
20260504004628 62 0.0 0.0 0.00 0.00 0.00 63 1018.9
20260504003058 63 0.0 0.0 0.00 0.00 0.00 62 1018.9
20260504001616 63 0.0 0.0 0.00 0.00 0.00 63 1018.5
20260504000045 64 0.0 0.0 0.00 0.00 0.00 63 1018.4
20260503234537 64 0.0 0.0 0.00 0.00 0.00 63 1018.4
20260503233038 64 0.0 0.0 0.00 0.00 0.00 63 1018.6
20260503231529 63 0.0 0.0 0.00 0.00 0.00 64 1018.8
20260503230024 63 0.0 0.0 0.00 0.00 0.00 64 1018.9
20260503224520 63 0.0 0.0 0.00 0.00 0.00 65 1019.0
20260503223016 62 0.0 0.0 0.00 0.00 0.00 68 1018.9
20260503221513 62 0.0 0.0 0.00 0.00 0.00 68 1018.9
20260503220007 63 0.0 0.0 0.00 0.00 0.00 67 1019.2
20260503214502 63 0.0 0.0 0.00 0.00 0.00 68 1019.1
20260503213058 62 0.0 0.0 0.00 0.00 0.00 70 1019.2
20260503211554 61 0.0 0.0 0.00 0.00 0.00 71 1019.3
20260503210051 61 0.0 0.0 0.00 0.00 0.00 71 1019.3
20260503204545 62 0.0 0.0 0.00 0.00 0.00 71 1019.2
20260503203059 62 0.0 0.0 0.00 0.00 0.00 71 1019.2
20260503201536 62 0.0 0.0 0.00 0.00 0.00 72 1019.5
20260503200032 63 0.0 0.0 0.00 0.00 0.00 68 1019.4
20260503194538 64 0.0 0.0 0.00 0.00 0.00 68 1019.5
20260503193024 64 0.0 0.0 0.00 0.00 0.00 69 1019.5
20260503191519 63 0.0 0.0 0.00 0.00 0.00 71 1019.5
20260503190016 63 0.0 0.0 0.00 0.00 0.00 73 1019.6
20260503184517 62 0.0 0.0 0.00 0.00 0.00 77 1019.6
20260503183006 60 0.0 0.0 0.00 0.00 0.00 82 1019.6
20260503181502 60 0.0 0.0 0.00 0.00 0.00 82 1019.7
20260503180057 60 0.0 0.0 0.00 0.00 0.00 84 1019.7
20260503174552 59 0.0 0.0 0.00 0.00 0.00 86 1019.9
20260503173049 58 0.0 0.0 0.00 0.00 0.00 85 1019.9
20260503171544 57 0.0 0.0 0.00 0.00 0.00 88 1019.9
20260503081522 56 0.0 0.0 0.00 0.00 0.00 90 1018.9
20260503071550 56 0.0 0.0 0.00 0.00 0.00 89 1019.4
20260503054533 57 0.0 0.0 0.00 0.00 0.00 86 1019.5
20260503053034 57 0.0 0.0 0.00 0.00 0.00 85 1019.2
20260503051514 58 0.0 0.0 0.00 0.00 0.00 84 1018.8
20260503050010 59 0.0 0.0 0.00 0.00 0.00 82 1018.6
20260503044508 60 0.0 0.0 0.00 0.00 0.00 81 1018.3
20260503043001 60 0.0 0.0 0.00 0.00 0.00 80 1017.9
20260503041557 61 0.0 0.0 0.00 0.00 0.00 79 1017.7
20260503040052 61 0.0 0.0 0.00 0.00 0.00 79 1017.2
20260503034549 61 0.0 0.0 0.00 0.00 0.00 78 1017.4
20260503033044 62 0.0 0.0 0.00 0.00 0.00 77 1017.2
20260503031544 63 0.0 0.0 0.00 0.00 0.00 75 1017.1
20260503030042 64 0.0 0.0 0.00 0.00 0.00 73 1016.9
20260503024531 65 0.0 0.0 0.00 0.00 0.00 71 1017.1
20260503023026 66 0.0 0.0 0.00 0.00 0.00 69 1017.0
20260503021522 67 0.0 0.0 0.00 0.00 0.00 68 1016.9
20260503020018 68 0.0 0.0 0.00 0.00 0.00 67 1016.9
20260503014515 69 0.0 0.0 0.00 0.00 0.00 65 1016.9
20260503013009 70 0.0 0.0 0.00 0.00 0.00 64 1016.8
20260503011506 71 0.0 0.0 0.00 0.00 0.00 62 1016.8